sat.trackr.live / text

‹ back to catalog

STARLINK-37013

NORAD 68162 · 2026-049W

PAYLOAD ACTIVE UNKNOWN

§ Identity

Operator
Country
US
Launch date
2026-03-13
Launch site
AFWTR
Launch vehicle
Mass (kg)
RCS (m²)

Purposes: comms

External: N2YO · Heavens-Above · Gunter

§ Orbital elements

Epoch: 2026-09-20T03:08:42.828000Z

Period
93.91 min
Inclination
97.2842°
Eccentricity
0.0001412
Mean motion
15.33446488 rev/d
Perigee alt
464.6 km
Apogee alt
466.5 km
Semi-major
6,843.7 km
B*
1.8174e-4
RAAN
283.0799°
Arg perigee
92.3381°
Mean anomaly
267.8023°
Rev number
2,944

§ Raw data

STARLINK-370131 68162U 26049W   26263.13105125  .00005797  00000+0  18174-3 0  99922 68162  97.2842 283.0799 0001412  92.3381 267.8023 15.33446488 29442

JSON: /api/v1/satellites/68162 · /tle

For live sub-satellite position, see the globe view (requires WebGL).

§ Visibility from observer

Set your observer location to see the next 7 days of passes ≥ 10°. The values pass through the URL so the page stays shareable.

No JS? Fill the form by hand. The geolocation button needs JavaScript.